Location: N�rnberg
(49.4489°N, 11.0797°E)
Time: 16:56:44
(UTC+01:00)

ISS - Pass Details

Date: 27 March 2017
Orbit: 399 x 409 km, 51.6° (Epoch: 25 March)

Event Time Altitude Azimuth Distance (km) Brightness Sun altitude
Rises 21:48:36 0° 227° (SW) 2,305 0.2 -20.6°
Reaches altitude 10° 21:50:45 10° 219° (SW) 1,451 -1.0 -20.9°
Enters shadow 21:51:05 12° 217° (SW) 1,319 -1.2 -20.9°
